When you browse on this site, cookies collect data to enhance your experience and personalize the content and advertising you see.
Visit our Privacy Policy to learn more. By continuing to use the site, you agree to this use of cookies and data.
  • In Hungary
  • List of Countries
  • For 7 days
  • Water Temperature
  • Satellite Maps
  • Weather Map
  • News
  • Weather Widgets
  • user-avatar
    Login

    Hourly Weather Yoro

    Today, 20 July, Saturday

    Time Temperature Precipitation Wind Pressure Humidity
    00:00 +20°C° 0 mm 0 mps 699 mmHg 95%
    01:00 +20°C° 0 mm 0 mps 699 mmHg 95%
    02:00 +19°C° 0 mm 0 mps 699 mmHg 95%
    03:00 +19°C° 0 mm 0 mps 698 mmHg 95%
    04:00 +19°C° 0 mm 0 mps 698 mmHg 95%
    05:00 +19°C° 0 mm 0 mps 698 mmHg 95%
    06:00 +20°C° 0 mm 0 mps 698 mmHg 95%
    07:00 +22°C° 0 mm 0 mps 699 mmHg 86%
    08:00 +24°C° 0 mm 0 mps 700 mmHg 77%
    09:00 +26°C° 0 mm 0 mps 700 mmHg 69%
    10:00 +29°C° 0 mm 1 mps 700 mmHg 64%
    11:00 +31°C° 0 mm 1 mps 700 mmHg 59%
    12:00 +32°C° 0 mm 2 mps 700 mmHg 54%
    13:00 +31°C° 1.6 mm 2 mps 699 mmHg 61%
    14:00 +29°C° 1.6 mm 1 mps 699 mmHg 69%
    15:00 +28°C° 1.6 mm 1 mps 698 mmHg 76%
    16:00 +27°C° 0.8 mm 1 mps 698 mmHg 82%
    17:00 +25°C° 0.8 mm 1 mps 698 mmHg 87%
    18:00 +24°C° 0.8 mm 1 mps 698 mmHg 92%
    19:00 +24°C° 0 mm 1 mps 698 mmHg 91%
    20:00 +21°C° 0 mm 0 mps 699 mmHg 91%
    21:00 +21°C° 0 mm 0 mps 699 mmHg 90%
    22:00 +21°C° 0 mm 0 mps 699 mmHg 91%
    23:00 +20°C° 0 mm 0 mps 699 mmHg 91%

    Tomorrow, 21 July, Sunday

    Time Temperature Precipitation Wind Pressure Humidity
    00:00 +20°C° 0 mm 0 mps 699 mmHg 91%
    01:00 +20°C° 0 mm 0 mps 699 mmHg 91%
    02:00 +20°C° 0 mm 0 mps 698 mmHg 92%
    03:00 +20°C° 0 mm 0 mps 698 mmHg 92%
    04:00 +20°C° 0 mm 0 mps 698 mmHg 92%
    05:00 +20°C° 0 mm 0 mps 698 mmHg 92%
    06:00 +20°C° 0 mm 0 mps 699 mmHg 93%
    07:00 +24°C° 0 mm 1 mps 699 mmHg 84%
    08:00 +27°C° 0 mm 1 mps 700 mmHg 75%
    09:00 +29°C° 0 mm 1 mps 701 mmHg 65%
    10:00 +30°C° 0 mm 1 mps 701 mmHg 61%
    11:00 +31°C° 0 mm 1 mps 700 mmHg 56%
    12:00 +32°C° 0 mm 2 mps 700 mmHg 51%
    13:00 +32°C° 0.4 mm 2 mps 700 mmHg 52%
    14:00 +32°C° 0.4 mm 2 mps 699 mmHg 53%
    15:00 +33°C° 0.4 mm 3 mps 698 mmHg 54%
    16:00 +30°C° 0.5 mm 2 mps 698 mmHg 65%
    17:00 +28°C° 0.5 mm 2 mps 698 mmHg 77%
    18:00 +26°C° 0.5 mm 1 mps 698 mmHg 88%
    19:00 +25°C° 0.1 mm 1 mps 699 mmHg 91%
    20:00 +24°C° 0.1 mm 1 mps 699 mmHg 93%
    21:00 +21°C° 0.1 mm 0 mps 699 mmHg 96%
    22:00 +23°C° 0 mm 1 mps 699 mmHg 96%
    23:00 +23°C° 0 mm 1 mps 699 mmHg 95%

    Day after tomorrow, 22 July, Monday

    Time Temperature Precipitation Wind Pressure Humidity
    00:00 +22°C° 0 mm 1 mps 699 mmHg 95%
    01:00 +22°C° 0 mm 1 mps 699 mmHg 96%
    02:00 +20°C° 0 mm 0 mps 699 mmHg 96%
    03:00 +20°C° 0 mm 0 mps 699 mmHg 96%
    04:00 +20°C° 0 mm 0 mps 699 mmHg 96%
    05:00 +22°C° 0 mm 1 mps 699 mmHg 96%
    06:00 +22°C° 0 mm 1 mps 699 mmHg 96%
    07:00 +24°C° 0 mm 1 mps 700 mmHg 88%
    08:00 +24°C° 0 mm 0 mps 700 mmHg 81%
    09:00 +26°C° 0 mm 0 mps 701 mmHg 73%
    10:00 +29°C° 0 mm 1 mps 701 mmHg 64%
    11:00 +31°C° 0 mm 1 mps 701 mmHg 55%
    12:00 +32°C° 0 mm 1 mps 701 mmHg 47%
    13:00 +32°C° 0.1 mm 2 mps 700 mmHg 48%
    14:00 +32°C° 0.1 mm 2 mps 700 mmHg 50%
    15:00 +31°C° 0.1 mm 2 mps 699 mmHg 52%
    16:00 +29°C° 0.3 mm 2 mps 699 mmHg 64%
    17:00 +27°C° 0.3 mm 1 mps 699 mmHg 75%
    18:00 +25°C° 0.3 mm 1 mps 699 mmHg 86%
    19:00 +24°C° 0.1 mm 1 mps 699 mmHg 89%
    20:00 +24°C° 0.1 mm 1 mps 700 mmHg 92%
    21:00 +23°C° 0.1 mm 1 mps 700 mmHg 95%
    22:00 +22°C° 0 mm 1 mps 700 mmHg 94%
    23:00 +22°C° 0 mm 1 mps 700 mmHg 94%

    23 July, Tuesday

    Time Temperature Precipitation Wind Pressure Humidity
    00:00 +22°C° 0 mm 1 mps 700 mmHg 94%
    01:00 +21°C° 0 mm 1 mps 699 mmHg 95%
    02:00 +21°C° 0 mm 1 mps 699 mmHg 95%
    03:00 +21°C° 0 mm 1 mps 698 mmHg 95%
    04:00 +21°C° 0 mm 1 mps 699 mmHg 95%
    05:00 +21°C° 0 mm 1 mps 699 mmHg 95%
    06:00 +21°C° 0 mm 1 mps 699 mmHg 95%
    07:00 +22°C° 0 mm 0 mps 700 mmHg 83%
    08:00 +24°C° 0 mm 0 mps 701 mmHg 70%
    09:00 +27°C° 0 mm 0 mps 701 mmHg 58%
    10:00 +30°C° 0 mm 1 mps 701 mmHg 53%
    11:00 +31°C° 0 mm 1 mps 701 mmHg 48%
    12:00 +32°C° 0 mm 1 mps 701 mmHg 43%
    13:00 +32°C° 0 mm 2 mps 700 mmHg 44%
    14:00 +32°C° 0 mm 2 mps 700 mmHg 46%
    15:00 +32°C° 0 mm 2 mps 699 mmHg 48%
    16:00 +30°C° 0.3 mm 2 mps 699 mmHg 61%
    17:00 +28°C° 0.3 mm 2 mps 699 mmHg 74%
    18:00 +25°C° 0.3 mm 1 mps 699 mmHg 86%
    19:00 +24°C° 0.1 mm 1 mps 699 mmHg 90%
    20:00 +23°C° 0.1 mm 1 mps 700 mmHg 93%
    21:00 +23°C° 0.1 mm 1 mps 700 mmHg 96%
    22:00 +22°C° 0 mm 1 mps 700 mmHg 96%
    23:00 +20°C° 0 mm 0 mps 700 mmHg 97%

    24 July, Wednesday

    Time Temperature Precipitation Wind Pressure Humidity
    00:00 +20°C° 0 mm 0 mps 700 mmHg 97%
    01:00 +20°C° 0 mm 0 mps 699 mmHg 97%
    02:00 +19°C° 0 mm 0 mps 699 mmHg 97%
    03:00 +19°C° 0 mm 0 mps 699 mmHg 97%
    04:00 +19°C° 0 mm 0 mps 699 mmHg 97%
    05:00 +19°C° 0 mm 0 mps 699 mmHg 97%
    06:00 +19°C° 0 mm 0 mps 699 mmHg 96%
    07:00 +22°C° 0 mm 0 mps 700 mmHg 87%
    08:00 +24°C° 0 mm 0 mps 700 mmHg 77%
    09:00 +26°C° 0 mm 0 mps 701 mmHg 67%
    10:00 +29°C° 0 mm 1 mps 701 mmHg 61%
    11:00 +31°C° 0 mm 1 mps 701 mmHg 54%
    12:00 +32°C° 0 mm 2 mps 700 mmHg 48%
    13:00 +31°C° 0.1 mm 2 mps 700 mmHg 52%
    14:00 +31°C° 0.1 mm 2 mps 699 mmHg 56%
    15:00 +30°C° 0.1 mm 2 mps 699 mmHg 61%
    16:00 +28°C° 1.7 mm 2 mps 699 mmHg 72%
    17:00 +27°C° 1.7 mm 2 mps 699 mmHg 82%
    18:00 +25°C° 1.7 mm 1 mps 699 mmHg 93%
    19:00 +24°C° 5 mm 1 mps 699 mmHg 95%
    20:00 +23°C° 5 mm 1 mps 699 mmHg 96%
    21:00 +23°C° 5 mm 1 mps 700 mmHg 98%
    22:00 +20°C° 0.2 mm 0 mps 700 mmHg 97%
    23:00 +20°C° 0.2 mm 0 mps 699 mmHg 97%

    25 July, Thursday

    Time Temperature Precipitation Wind Pressure Humidity
    00:00 +20°C° 0.2 mm 0 mps 699 mmHg 97%
    01:00 +20°C° 0 mm 0 mps 699 mmHg 97%
    02:00 +19°C° 0 mm 0 mps 699 mmHg 97%
    03:00 +19°C° 0 mm 0 mps 698 mmHg 96%
    04:00 +19°C° 0 mm 0 mps 699 mmHg 96%
    05:00 +19°C° 0 mm 0 mps 699 mmHg 96%
    06:00 +22°C° 0 mm 1 mps 699 mmHg 95%
    07:00 +24°C° 0 mm 1 mps 700 mmHg 87%
    08:00 +26°C° 0 mm 1 mps 700 mmHg 79%
    09:00 +28°C° 0 mm 1 mps 701 mmHg 70%
    10:00 +29°C° 0.3 mm 1 mps 701 mmHg 66%
    11:00 +30°C° 0.3 mm 1 mps 701 mmHg 62%
    12:00 +31°C° 0.3 mm 1 mps 700 mmHg 58%
    13:00 +31°C° 0.5 mm 2 mps 700 mmHg 58%
    14:00 +31°C° 0.5 mm 2 mps 699 mmHg 57%
    15:00 +31°C° 0.5 mm 2 mps 699 mmHg 56%
    16:00 +29°C° 0.4 mm 2 mps 699 mmHg 66%
    17:00 +27°C° 0.4 mm 1 mps 699 mmHg 76%
    18:00 +25°C° 0.4 mm 1 mps 699 mmHg 86%
    19:00 +24°C° 0 mm 1 mps 699 mmHg 87%
    20:00 +23°C° 0 mm 1 mps 700 mmHg 89%
    21:00 +22°C° 0 mm 1 mps 700 mmHg 91%
    22:00 +22°C° 0 mm 1 mps 700 mmHg 91%
    23:00 +21°C° 0 mm 1 mps 700 mmHg 91%
    Show more